{"data":{"norad_id":62761,"epoch":"2026-09-21T20:55:26.420448Z","epoch_age_seconds":52824,"freshness":"FRESH","line1":"1 62761U 25015D   26264.87183357  .00010849  00000+0  33167-3 0  9991","line2":"2 62761  53.1591 127.2336 0001110  92.1435 267.9694 15.34407342 94570","mean_motion":15.34407342,"eccentricity":0.000111,"inclination_deg":53.1591,"raan_deg":127.2336,"arg_perigee_deg":92.1435,"mean_anomaly_deg":267.9694,"bstar":0.00033167,"rev_number":9457,"period_min":93.847309028322,"perigee_km":461.92208747843,"apogee_km":463.4407491673,"semimajor_km":6840.8184183229,"source":"CELESTRAK","updated_at":"2026-09-22T09:00:49.661012Z"}}